Langdon, ND

4:49 AM CDT on June 28, 2017 (GMT -0500)
Langdon

Weather History for KD55 - November, 2011

Change the Weather History Date:

Monday, November 28, 2011

  Actual Average (KDVL) Record (KDVL)
Temperature  
Mean Temperature 32 °F -  
Max Temperature 39 °F 24 °F 48 °F (2002)
Min Temperature 24 °F 10 °F -15 °F (1985)
Degree Days  
Heating Degree Days 34    
Moisture  
Dew Point 25 °F    
Average Humidity 74    
Maximum Humidity 86    
Minimum Humidity 52    
Precipitation  
Precipitation 0.00 in - - ()
Sea Level Pressure  
Sea Level Pressure 29.94 in    
Wind  
Wind Speed 19 mph (WNW)    
Max Wind Speed 26 mph    
Max Gust Speed 34 mph    
Visibility 10 miles    
Events      
Averages and records for this station are not official NWS values.
T = Trace of Precipitation, MM = Missing Value Source: NWS Daily Summary

Daily Weather History Graph

Daily Weather History Graph

Search for Another Location

Airport or City:

Trip Planner

Search our weather history database for the weather conditions in past years. The results will help you decide how hot, cold, wet, or windy it might be!

Date:

Astronomy

Nov. 28, 2011 Rise Set
Actual Time 8:01 AM CST 4:41 PM CST
Civil Twilight 7:25 AM CST 5:17 PM CST
Nautical Twilight 6:45 AM CST 5:56 PM CST
Astronomical Twilight 6:07 AM CST 6:34 PM CST
Moon 11:08 AM CST 8:34 PM CST
Length of Visible Light 9h 52m
Length of Day
8h 40m
Waxing Crescent, 16% of the Moon is Illuminated
Nov 28
Waxing Crescent
Dec 2
First Quarter
Dec 10
Full
Dec 17
Last Quarter
Dec 24
New

Hourly Weather History & Observations

Time (CST) Temp. Windchill Dew Point Humidity Pressure Visibility Wind Dir Wind Speed Gust Speed Precip Events Conditions
12:15 AM 28.4 °F 14.4 °F 19.4 °F 69% 29.74 in 10.0 mi SSW 23.0 mph 27.6 mph N/A   Clear
12:35 AM 28.4 °F 14.4 °F 19.4 °F 69% 29.73 in 10.0 mi SSW 23.0 mph 28.8 mph N/A   Clear
12:55 AM 28.4 °F 14.7 °F 19.4 °F 69% 29.72 in 10.0 mi SSW 21.9 mph 28.8 mph N/A   Clear
1:15 AM 28.4 °F 15.1 °F 21.2 °F 74% 29.72 in 10.0 mi SSW 20.7 mph 27.6 mph N/A   Clear
1:35 AM 28.4 °F 15.4 °F 23.0 °F 80% 29.72 in 10.0 mi SSW 19.6 mph 26.5 mph N/A   Clear
1:55 AM 30.2 °F 17.4 °F 23.0 °F 75% 29.69 in 10.0 mi South 20.7 mph 25.3 mph N/A   Clear
2:15 AM 28.4 °F 15.4 °F 23.0 °F 80% 29.72 in 10.0 mi SSW 19.6 mph - N/A   Clear
2:35 AM 28.4 °F 16.2 °F 23.0 °F 80% 29.71 in 10.0 mi SSW 17.3 mph - N/A   Clear
2:55 AM 28.4 °F 15.1 °F 23.0 °F 80% 29.69 in 10.0 mi SSW 20.7 mph 24.2 mph N/A   Clear
3:15 AM 30.2 °F 18.5 °F 23.0 °F 75% 29.69 in 10.0 mi SSW 17.3 mph - N/A   Clear
3:35 AM 28.4 °F 15.4 °F 23.0 °F 80% 29.68 in 10.0 mi SSW 19.6 mph - N/A   Clear
3:55 AM 28.4 °F 16.2 °F 23.0 °F 80% 29.68 in 10.0 mi SW 17.3 mph - N/A   Clear
4:15 AM 28.4 °F 15.8 °F 23.0 °F 80% 29.68 in 10.0 mi SSW 18.4 mph - N/A   Clear
4:35 AM 30.2 °F 18.9 °F 23.0 °F 75% 29.69 in 10.0 mi SSW 16.1 mph - N/A   Clear
4:55 AM 32.0 °F 21.2 °F 24.8 °F 75% 29.69 in 10.0 mi SW 16.1 mph - N/A   Clear
5:15 AM 32.0 °F 20.5 °F 24.8 °F 75% 29.70 in 10.0 mi WSW 18.4 mph 23.0 mph N/A   Clear
5:35 AM 32.0 °F 22.5 °F 24.8 °F 75% 29.70 in 10.0 mi WSW 12.7 mph - N/A   Clear
5:55 AM 32.0 °F 22.5 °F 26.6 °F 80% 29.70 in 10.0 mi WSW 12.7 mph - N/A   Clear
6:35 AM 33.8 °F 23.5 °F 26.6 °F 75% 29.69 in 10.0 mi SW 16.1 mph - N/A   Clear
6:55 AM 33.8 °F 23.5 °F 26.6 °F 75% 29.70 in 10.0 mi WSW 16.1 mph 19.6 mph N/A   Clear
7:15 AM 35.6 °F 25.5 °F 28.4 °F 75% 29.72 in 10.0 mi WSW 17.3 mph - N/A   Mostly Cloudy
7:35 AM 35.6 °F 25.9 °F 28.4 °F 75% 29.73 in 10.0 mi West 16.1 mph - N/A   Scattered Clouds
7:55 AM 35.6 °F 25.5 °F 28.4 °F 75% 29.75 in 10.0 mi West 17.3 mph - N/A   Clear
8:35 AM 37.4 °F 26.6 °F 32.0 °F 81% 29.79 in 10.0 mi NW 21.9 mph 27.6 mph N/A   Clear
8:55 AM 37.4 °F 27.2 °F 32.0 °F 81% 29.82 in 10.0 mi NW 19.6 mph 27.6 mph N/A   Clear
9:15 AM 37.4 °F 27.5 °F 32.0 °F 81% 29.84 in 10.0 mi NW 18.4 mph 24.2 mph N/A   Clear
9:35 AM 37.4 °F 27.2 °F 32.0 °F 81% 29.87 in 10.0 mi NW 19.6 mph - N/A   Clear
9:55 AM 37.4 °F 27.2 °F 32.0 °F 81% 29.89 in 10.0 mi NW 19.6 mph 27.6 mph N/A   Clear
10:15 AM 37.4 °F 27.2 °F 32.0 °F 81% 29.91 in 10.0 mi NW 19.6 mph 28.8 mph N/A   Clear
10:35 AM 37.4 °F 27.8 °F 32.0 °F 81% 29.93 in 10.0 mi NNW 17.3 mph 26.5 mph N/A   Clear
10:55 AM 37.4 °F 27.2 °F 32.0 °F 81% 29.95 in 10.0 mi NW 19.6 mph 24.2 mph N/A   Clear
11:15 AM 39.2 °F 29.8 °F 32.0 °F 75% 29.97 in 10.0 mi NW 18.4 mph 24.2 mph N/A   Clear
11:35 AM 39.2 °F 28.5 °F 32.0 °F 75% 29.98 in 10.0 mi NW 24.2 mph 29.9 mph N/A   Clear
11:55 AM 39.2 °F 28.3 °F 32.0 °F 75% 29.99 in 10.0 mi NW 25.3 mph 32.2 mph N/A   Clear
12:15 PM 39.2 °F 28.7 °F 32.0 °F 75% 30.00 in 10.0 mi NW 23.0 mph 29.9 mph N/A   Clear
12:55 PM 39.2 °F 28.5 °F 32.0 °F 75% 30.02 in 10.0 mi NNW 24.2 mph 34.5 mph N/A   Clear
1:15 PM 39.2 °F 29.6 °F 32.0 °F 75% 30.04 in 10.0 mi NW 19.6 mph 27.6 mph N/A   Clear
1:35 PM 39.2 °F 28.5 °F 28.4 °F 65% 30.05 in 10.0 mi NNW 24.2 mph 28.8 mph N/A   Clear
1:55 PM 39.2 °F 28.3 °F 24.8 °F 56% 30.07 in 10.0 mi NW 25.3 mph 34.5 mph N/A   Clear
2:15 PM 39.2 °F 28.3 °F 24.8 °F 56% 30.09 in 10.0 mi NW 25.3 mph 33.4 mph N/A   Clear
2:35 PM 39.2 °F 28.0 °F 24.8 °F 56% 30.10 in 10.0 mi NW 26.5 mph 33.4 mph N/A   Clear
2:55 PM 37.4 °F 26.6 °F 21.2 °F 52% 30.12 in 10.0 mi NW 21.9 mph 29.9 mph N/A   Clear
3:15 PM 37.4 °F 28.5 °F 23.0 °F 56% 30.14 in 10.0 mi NW 15.0 mph - N/A   Clear
3:35 PM 35.6 °F 25.2 °F 21.2 °F 56% 30.15 in 10.0 mi NW 18.4 mph 26.5 mph N/A   Clear
3:55 PM 35.6 °F 25.2 °F 19.4 °F 52% 30.16 in 10.0 mi NW 18.4 mph 25.3 mph N/A   Clear
4:15 PM 33.8 °F 22.8 °F 19.4 °F 56% 30.18 in 10.0 mi NW 18.4 mph 23.0 mph N/A   Clear
4:35 PM 32.0 °F 21.2 °F 19.4 °F 60% 30.19 in 10.0 mi NW 16.1 mph - N/A   Clear
4:55 PM 32.0 °F 22.5 °F 21.2 °F 64% 30.20 in 10.0 mi NW 12.7 mph - N/A   Clear
5:15 PM 30.2 °F 20.8 °F 23.0 °F 75% 30.21 in 10.0 mi NW 11.5 mph - N/A   Clear
5:35 PM 28.4 °F 19.1 °F 23.0 °F 80% 30.22 in 10.0 mi NW 10.4 mph - N/A   Clear
5:55 PM 28.4 °F 19.7 °F 23.0 °F 80% 30.23 in 10.0 mi WNW 9.2 mph - N/A   Clear
6:15 PM 28.4 °F 19.1 °F 23.0 °F 80% 30.24 in 10.0 mi WNW 10.4 mph - N/A   Clear
6:35 PM 26.6 °F 21.2 °F 23.0 °F 86% 30.25 in 10.0 mi WNW 4.6 mph - N/A   Clear
6:55 PM 26.6 °F 16.8 °F 23.0 °F 86% 30.25 in 10.0 mi WNW 10.4 mph - N/A   Clear
7:15 PM 26.6 °F 15.7 °F 21.2 °F 80% 30.26 in 10.0 mi WNW 12.7 mph - N/A   Clear
7:35 PM 26.6 °F 16.8 °F 19.4 °F 74% 30.26 in 10.0 mi NW 10.4 mph - N/A   Clear
7:55 PM 24.8 °F 16.1 °F 19.4 °F 80% 30.26 in 10.0 mi WNW 8.1 mph - N/A   Clear
8:15 PM 24.8 °F 14.6 °F 17.6 °F 74% 30.27 in 10.0 mi NW 10.4 mph - N/A   Clear
8:35 PM 24.8 °F 12.9 °F 17.6 °F 74% 30.28 in 10.0 mi NW 13.8 mph - N/A   Clear
8:55 PM 26.6 °F 14.7 °F 17.6 °F 69% 30.28 in 10.0 mi WNW 15.0 mph - N/A   Clear
9:15 PM 24.8 °F 12.9 °F 15.8 °F 69% 30.29 in 10.0 mi NW 13.8 mph - N/A   Clear
9:35 PM 24.8 °F 12.4 °F 15.8 °F 69% 30.29 in 10.0 mi NW 15.0 mph 20.7 mph N/A   Clear
9:55 PM 24.8 °F 13.4 °F 15.8 °F 69% 30.30 in 10.0 mi WNW 12.7 mph - N/A   Clear
10:15 PM 23.0 °F 13.1 °F 15.8 °F 74% 30.31 in 10.0 mi WNW 9.2 mph - N/A   Clear
10:35 PM 21.2 °F 10.9 °F 15.8 °F 80% 30.32 in 10.0 mi NW 9.2 mph - N/A   Clear
10:55 PM 19.4 °F 7.9 °F 15.8 °F 86% 30.32 in 10.0 mi NW 10.4 mph - N/A   Clear
11:15 PM 19.4 °F 8.6 °F 14.0 °F 80% 30.31 in 10.0 mi NW 9.2 mph - N/A   Clear
11:35 PM 19.4 °F 8.6 °F 14.0 °F 80% 30.30 in 10.0 mi NW 9.2 mph - N/A   Clear
11:55 PM 17.6 °F 9.3 °F 12.2 °F 79% 30.30 in 10.0 mi NNW 5.8 mph - N/A   Clear